Saint Petersburg, FL

10:56 AM EDT on August 25, 2016 (GMT -0400)
Whitted

Weather History for KSPG - October, 2012

Change the Weather History Date:

Wednesday, October 3, 2012

  Actual Average Record
Temperature  
Mean Temperature 78 °F -  
Max Temperature 82 °F 86 °F 93 °F (1959)
Min Temperature 75 °F 73 °F 62 °F (1984)
Cooling Degree Days 14    
Growing Degree Days 28 (Base 50)    
Moisture  
Dew Point 75 °F    
Average Humidity 89    
Maximum Humidity 94    
Minimum Humidity 81    
Precipitation  
Precipitation 0.38 in - - ()
Sea Level Pressure  
Sea Level Pressure 30.08 in    
Wind  
Wind Speed 9 mph (South)    
Max Wind Speed 21 mph    
Max Gust Speed 30 mph    
Visibility 9 miles    
Events Rain , Thunderstorm    
Averages and records for this station are not official NWS values.
T = Trace of Precipitation, MM = Missing Value Source: NWS Daily Summary

Daily Weather History Graph

Daily Weather History Graph

Search for Another Location

Airport or City:

Trip Planner

Search our weather history database for the weather conditions in past years. The results will help you decide how hot, cold, wet, or windy it might be!

Date:

Astronomy

Oct. 03, 2012 Rise Set
Actual Time 7:24 AM EDT 7:13 PM EDT
Civil Twilight 7:01 AM EDT 7:37 PM EDT
Nautical Twilight 6:34 AM EDT 8:04 PM EDT
Astronomical Twilight 6:06 AM EDT 8:31 PM EDT
Moon 9:26 PM EDT (10/3) 10:26 AM EDT (10/3)
Length of Visible Light 12h 35m
Length of Day
11h 49m
Waning Gibbous, 89% of the Moon is Illuminated
Oct 3
Waning Gibbous
Oct 8
Last Quarter
Oct 15
New
Oct 21
First Quarter
Oct 29
Full

Hourly Weather History & Observations

Time (EDT) Temp. Heat Index Dew Point Humidity Pressure Visibility Wind Dir Wind Speed Gust Speed Precip Events Conditions
12:45 AM 78.8 °F - 75.2 °F 89% 30.00 in 10.0 mi South 11.5 mph - 0.00 in   Mostly Cloudy
12:53 AM 78.1 °F - 75.0 °F 90% 30.01 in 10.0 mi South 10.4 mph - 0.00 in   Mostly Cloudy
1:53 AM 78.1 °F - 73.9 °F 87% 30.01 in 10.0 mi South 12.7 mph - N/A   Clear
2:53 AM 78.1 °F - 73.9 °F 87% 30.00 in 10.0 mi SSW 10.4 mph - N/A   Partly Cloudy
3:53 AM 77.0 °F - 73.9 °F 90% 30.01 in 10.0 mi South 16.1 mph - 0.01 in Rain Light Rain
4:53 AM 77.0 °F - 75.0 °F 94% 30.01 in 9.0 mi SW 4.6 mph - 0.05 in Rain Light Rain
5:53 AM 78.1 °F - 73.9 °F 87% 30.03 in 10.0 mi SSE 5.8 mph - 0.00 in   Overcast
6:53 AM 77.0 °F - 73.9 °F 90% 30.04 in 6.0 mi SSE 5.8 mph - 0.10 in Rain Light Rain
7:33 AM 77.0 °F - 73.4 °F 89% 30.04 in 10.0 mi SE 4.6 mph - 0.02 in   Overcast
7:53 AM 78.1 °F - 73.9 °F 87% 30.05 in 10.0 mi ESE 6.9 mph - 0.02 in   Mostly Cloudy
8:41 AM 78.8 °F - 75.2 °F 89% 30.06 in 9.0 mi East 4.6 mph - 0.01 in Rain , Thunderstorm Light Thunderstorms and Rain
8:53 AM 77.0 °F - 75.0 °F 94% 30.09 in 1.0 mi SSE 3.5 mph - 0.11 in Rain , Thunderstorm Heavy Thunderstorms and Rain
9:00 AM 77.0 °F - 75.2 °F 94% 30.09 in 3.0 mi South 12.7 mph - 0.01 in Rain , Thunderstorm Light Thunderstorms and Rain
9:14 AM 77.0 °F - 75.2 °F 94% 30.09 in 7.0 mi SW 8.1 mph 19.6 mph 0.02 in Rain Light Rain
9:45 AM 78.8 °F - 75.2 °F 89% 30.08 in 10.0 mi South 13.8 mph - 0.03 in   Mostly Cloudy
9:53 AM 78.1 °F - 75.0 °F 90% 30.09 in 10.0 mi South 17.3 mph - 0.03 in Rain Light Rain
10:53 AM 79.0 °F - 75.0 °F 88% 30.09 in 10.0 mi SSE 8.1 mph - 0.05 in   Scattered Clouds
11:42 AM 80.6 °F 86.2 °F 75.2 °F 84% 30.10 in 10.0 mi SE 6.9 mph - N/A   Mostly Cloudy
11:53 AM 80.1 °F 85.4 °F 75.9 °F 87% 30.09 in 10.0 mi ESE 4.6 mph - N/A   Overcast
12:13 PM 80.6 °F 87.1 °F 77.0 °F 89% 30.09 in 10.0 mi SE 5.8 mph - N/A   Overcast
12:43 PM 80.6 °F 87.1 °F 77.0 °F 89% 30.10 in 10.0 mi SSE 3.5 mph - N/A   Mostly Cloudy
12:53 PM 82.0 °F 90.2 °F 77.0 °F 85% 30.10 in 10.0 mi SSE 3.5 mph - N/A   Partly Cloudy
1:23 PM 78.8 °F - 73.4 °F 83% 30.10 in 9.0 mi West 20.7 mph 29.9 mph 0.00 in Rain Light Rain
1:40 PM 75.2 °F - 73.4 °F 94% 30.09 in 10.0 mi West 15.0 mph 21.9 mph 0.00 in Rain Light Rain
1:53 PM 77.0 °F - 73.9 °F 90% 30.09 in 10.0 mi West 10.4 mph - 0.00 in   Mostly Cloudy
2:04 PM 78.8 °F - 75.2 °F 89% 30.09 in 10.0 mi West 11.5 mph - N/A   Overcast
2:18 PM 78.8 °F - 75.2 °F 89% 30.09 in 10.0 mi West 12.7 mph - N/A   Mostly Cloudy
2:53 PM 78.1 °F - 75.9 °F 93% 30.09 in 7.0 mi West 10.4 mph - 0.01 in Rain Light Rain
3:11 PM 77.0 °F - 73.4 °F 89% 30.08 in 9.0 mi WNW 11.5 mph 18.4 mph 0.00 in Rain Light Rain
4:53 PM 80.1 °F 84.5 °F 73.9 °F 81% 30.10 in 10.0 mi West 12.7 mph - N/A   Mostly Cloudy
5:53 PM 79.0 °F - 73.9 °F 84% 30.09 in 9.0 mi SW 5.8 mph - 0.00 in Rain Light Rain
6:53 PM 79.0 °F - 73.9 °F 84% 30.09 in 10.0 mi WSW 4.6 mph - 0.00 in   Clear
7:53 PM 78.1 °F - 73.9 °F 87% 30.11 in 10.0 mi SSW 3.5 mph - N/A   Partly Cloudy
8:53 PM 80.1 °F 85.1 °F 75.0 °F 85% 30.11 in 10.0 mi Calm Calm - N/A   Clear
9:53 PM 79.0 °F - 75.0 °F 88% 30.14 in 10.0 mi ESE 6.9 mph - N/A   Clear
10:53 PM 79.0 °F - 75.0 °F 88% 30.14 in 10.0 mi SE 8.1 mph - N/A   Clear
11:53 PM 78.1 °F - 75.0 °F 90% 30.15 in 10.0 mi ESE 13.8 mph - N/A   Clear